Home   Weather   Bingen am Rhein   Past weeks

Flag for Germany Past Weather in Bingen am Rhein, Rhineland-Palatinate, Germany — Yesterday and Last 2 Weeks

49 °F


Feels Like: 47 °F
Forecast: 42 / 53 °F
Wind: 5 mph from West

Location: Wiesbaden Airport

Current Time: Oct 22, 2016 at 6:10:37 PM

Latest Report: Oct 22, 2016 at 4:58 PM

Visibility: N/A

Pressure: 29.94 "Hg

Humidity: 74%

Dew Point: 41 °F

Location of Bingen am RheinLocation

Past Weather in Bingen am Rhein — Graph


Bingen am Rhein Temperature Yesterday

Maximum temperature yesterday: 49 °F (at 3:58 PM)
Minimum temperature yesterday: 43 °F (at 11:58 PM)
Average temperature yesterday: 46 °F

High & Low Weather Summary for the Past Weeks

High61 °F (Oct 16, 4:58 PM)94% (Oct 18, 8:58 AM)30.28 "Hg (Oct 18, 8:58 AM)
Low39 °F (Oct 16, 6:58 AM)44% (Oct 8, 3:58 PM)29.68 "Hg (Oct 14, 8:58 PM)
Average49 °F73%30.07 "Hg
* Reported Oct 7 4:58 PM — Oct 22 4:58 PM, Bingen am Rhein, Weather by CustomWeather, © 2016

Note: Actual official high and low records may vary slightly from our data, if they occured in-between our weather recording intervals... More about our weather records


Bingen am Rhein Weather History for the Previous 24 Hours

Scroll right to see more
Time TempWeatherWind HumidityBarometerVisibility
4:58 PM
Sat, Oct 22
49 °FOvercast.5 mph74%29.94 "HgN/A
3:58 PM48 °FLight rain. Overcast.3 mph76%29.94 "HgN/A
2:58 PM50 °FMostly cloudy.3 mph73%29.94 "HgN/A
2:02 PM50 °FLight rain. Cloudy.3 mph71%29.93 "HgN/A
1:58 PM50 °FLight rain. Mostly cloudy.5 mph71%29.94 "HgN/A
12:58 PM50 °FMostly cloudy.3 mph71%29.94 "HgN/A
11:58 AM48 °FLight rain. Cloudy.7 mph76%29.94 "HgN/A
10:59 AM46 °FMostly cloudy.6 mph82%29.92 "HgN/A
10:58 AM46 °FMostly cloudy.6 mph82%29.94 "HgN/A
9:58 AM46 °FOvercast.6 mph81%29.93 "HgN/A
8:58 AM45 °FLow clouds.5 mph81%29.94 "HgN/A
7:58 AM45 °FOvercast.5 mph81%29.93 "HgN/A
7:02 AM45 °FMostly cloudy.No wind81%29.91 "HgN/A
6:58 AM45 °FMostly cloudy.No wind81%29.93 "HgN/A
6:01 AM45 °FLight rain. Partly cloudy.3 mph81%29.91 "HgN/A
5:58 AM44 °FLight rain. Passing clouds.3 mph82%29.93 "HgN/A
4:58 AM44 °FOvercast.7 mph81%29.93 "HgN/A
3:58 AM45 °FOvercast.5 mph81%29.93 "HgN/A
2:58 AM44 °FLight rain. Overcast.6 mph82%29.94 "HgN/A
1:58 AM44 °FLight rain. Overcast.6 mph84%29.96 "Hg6 mi
12:58 AM43 °FLight rain. Passing clouds.No wind87%29.96 "Hg6 mi
11:58 PM
Fri, Oct 21
43 °FLight rain. Partly cloudy.No wind81%29.99 "Hg5 mi
10:58 PM43 °FPassing clouds.No wind81%29.99 "HgN/A
9:58 PM44 °FClear.3 mph80%29.98 "HgN/A
8:58 PM44 °FMostly cloudy.3 mph79%30.00 "HgN/A
7:58 PM45 °FMostly cloudy.No wind76%30.00 "HgN/A
6:58 PM45 °FPassing clouds.3 mph73%30.00 "HgN/A
Weather by CustomWeather, © 2016

See weather overviewHow to use our weather pages